EW1556 Weather Reports


Display with metric or nautical units.
time (UTC)temp
F
wind
direction
speed
MPH
gust
MPH
rain 1hr
in
rain 24hr
in
rain mn
in
humidity
%
barometer
mb
20260504233005 82 17 8.0 14.0 0.00 0.34 0.00 24 1005.4
20260504231513 82 40 5.0 18.0 0.00 0.34 0.00 26 1005.4
20260504230002 82 39 9.0 16.0 0.00 0.36 0.00 26 1005.5
20260504224608 81 44 7.0 16.0 0.00 0.36 0.00 26 1005.7
20260504223059 82 74 7.0 19.0 0.00 0.36 0.00 26 1005.8
20260504221605 82 65 11.0 15.0 0.00 0.36 0.00 26 1006.0
20260504220057 81 75 8.0 19.0 0.00 0.36 0.00 27 1006.0
20260504214601 82 27 12.0 17.0 0.00 0.36 0.00 26 1006.2
20260504213103 82 27 11.0 18.0 0.00 0.36 0.00 25 1006.2
20260504211552 82 25 8.0 17.0 0.00 0.36 0.00 26 1006.4
20260504210057 81 37 9.0 15.0 0.00 0.36 0.00 26 1006.5
20260504204627 81 30 13.0 20.0 0.00 0.36 0.00 26 1006.6
20260504203050 81 46 8.0 20.0 0.00 0.36 0.00 29 1006.7
20260504201546 80 48 11.0 20.0 0.00 0.36 0.00 28 1006.8
20260504200053 80 79 4.0 15.0 0.00 0.36 0.00 29 1006.8
20260504194550 79 39 5.0 15.0 0.00 0.36 0.00 33 1007.0
20260504193045 79 64 6.0 15.0 0.00 0.36 0.00 32 1007.1
20260504191544 80 84 6.0 9.0 0.00 0.36 0.00 28 1007.0
20260504190050 80 4 5.0 10.0 0.00 0.36 0.00 29 1007.2
20260504184539 79 80 2.0 7.0 0.00 0.36 0.00 32 1007.2
20260504183035 78 340 1.0 8.0 0.00 0.36 0.00 33 1007.4
20260504181534 78 288 0.0 4.0 0.00 0.36 0.00 34 1007.5
20260504180033 78 356 1.0 4.0 0.00 0.36 0.00 31 1007.6
20260504174529 76 155 1.0 3.0 0.00 0.36 0.00 34 1007.7
20260504173026 76 84 1.0 5.0 0.00 0.36 0.00 35 1007.7
20260504171537 75 75 0.0 3.0 0.00 0.36 0.00 40 1007.8
20260504150104 62 139 0.0 1.0 0.00 0.36 0.00 54 1008.3
20260504081558 55 289 2.0 5.0 0.00 0.36 0.00 62 1008.1
20260504044544 59 285 0.0 2.0 0.00 0.36 0.36 55 1007.9
20260504043043 60 281 2.0 4.0 0.00 0.36 0.36 56 1007.7
20260504041545 61 266 1.0 2.0 0.00 0.36 0.36 52 1007.5
20260504040042 64 270 2.0 2.0 0.00 0.36 0.36 49 1007.3
20260504034546 68 351 0.0 2.0 0.00 0.36 0.36 40 1007.2
20260504033042 69 18 0.0 0.0 0.00 0.36 0.36 42 1007.1
20260504031541 72 54 0.0 0.0 0.00 0.36 0.36 33 1007.0
20260504030043 75 54 0.0 0.0 0.01 0.36 0.36 34 1006.9
20260504024539 77 55 0.0 0.0 0.07 0.36 0.36 31 1006.8
20260504023038 78 57 1.0 2.0 0.07 0.36 0.36 28 1006.9
20260504021536 79 80 1.0 5.0 0.07 0.36 0.36 25 1007.0
20260504020037 80 58 3.0 5.0 0.01 0.30 0.30 24 1007.2
20260504014536 80 77 3.0 6.0 0.00 0.28 0.28 24 1007.3
20260504013033 80 73 4.0 8.0 0.00 0.28 0.28 24 1007.4
20260504011529 81 74 5.0 9.0 0.04 0.28 0.28 24 1007.5
20260504010028 81 69 4.0 12.0 0.23 0.28 0.28 22 1007.7
20260504004526 81 61 6.0 11.0 0.23 0.28 0.28 23 1007.8
20260504003025 81 66 4.0 9.0 0.23 0.28 0.28 24 1007.9
20260504001525 81 45 5.0 9.0 0.23 0.25 0.25 22 1007.9
20260504000022 82 61 4.0 9.0 0.04 0.06 0.06 24 1007.9
20260503234534 81 51 3.0 12.0 0.04 0.06 0.06 25 1008.0